This is the latest recevied weather packets stored in our database for station/object KD4MBW. If no packets are shown the sender has not sent any weather packets the latest 10 day(s).
| Time | Temp. | Humidity | Pressure | Rain* | Wind** | Luminosity | Snow |
|---|---|---|---|---|---|---|---|
| 1787533068 | 30° C | 81% | 1014.4 hPa | 0 mm | - | 0 W/m² | - |
| 1787532763 | 30° C | 80% | 1014.4 hPa | 0 mm | - | 0 W/m² | - |
| 1787532458 | 30° C | 80% | 1014.4 hPa | 0 mm | - | 0 W/m² | - |
| 1787532155 | 30° C | 80% | 1014.3 hPa | 0 mm | - | 0 W/m² | - |
| 1787531850 | 30° C | 82% | 1014.3 hPa | 0 mm | - | 0 W/m² | - |
| 1787531546 | 30° C | 83% | 1014.1 hPa | 0 mm | - | 0 W/m² | - |
| 1787531242 | 30° C | 82% | 1013.9 hPa | 0 mm | - | 0 W/m² | - |
| 1787530937 | 30.56° C | 80% | 1013.9 hPa | 0 mm | - | 1 W/m² | - |
| 1787530632 | 31.11° C | 78% | 1013.8 hPa | 0 mm | - | 3 W/m² | - |
| 1787530327 | 31.11° C | 77% | 1013.7 hPa | 0 mm | - | 5 W/m² | - |
| 1787530022 | 31.11° C | 76% | 1013.7 hPa | 0 mm | - | 7 W/m² | - |
| 1787529718 | 31.67° C | 75% | 1013.9 hPa | 0 mm | - | 9 W/m² | - |
| 1787529413 | 31.67° C | 74% | 1013.9 hPa | 0 mm | - | 12 W/m² | - |
| 1787529113 | 31.67° C | 73% | 1014 hPa | 0 mm | - | 16 W/m² | - |
| 1787528809 | 31.67° C | 73% | 1013.9 hPa | 0 mm | - | 19 W/m² | - |
| 1787528504 | 32.22° C | 73% | 1013.9 hPa | 0 mm | - | 24 W/m² | - |
| 1787528199 | 32.22° C | 70% | 1014 hPa | 0 mm | - | 31 W/m² | - |
| 1787527896 | 32.78° C | 69% | 1014 hPa | 0 mm | - | 41 W/m² | - |
| 1787527591 | 32.78° C | 68% | 1013.9 hPa | 0 mm | - | 50 W/m² | - |
| 1787527287 | 32.78° C | 67% | 1013.9 hPa | 0 mm | - | 59 W/m² | - |
| 1787526977 | 32.78° C | 67% | 1013.7 hPa | 0 mm | - | 62 W/m² | - |
| 1787526672 | 33.33° C | 66% | 1013.8 hPa | 0 mm | - | 71 W/m² | - |
| 1787526369 | 33.33° C | 66% | 1013.8 hPa | 0 mm | - | 95 W/m² | - |
| 1787526064 | 33.33° C | 65% | 1013.7 hPa | 0 mm | - | 108 W/m² | - |
| 1787525761 | 33.33° C | 63% | 1013.7 hPa | 0 mm | - | 99 W/m² | - |
* Rain latest hour (hover to see other rain measurements)
** Current wind speed in m/s (hover to see current wind gust speed)